Regional Weather Roundup
Issued by NWS Midland/Odessa, TX

Home | Current Version | Previous Version | Text Only | Print | Product List | Glossary On
Versions: 1 2 3 4 5 6 7 8 9 10 11 12 13 14 15 16 17 18 19 20 21 22 23 24 25 26 27 28 29 30 31 32 33 34 35 36 37 38 39 40 41 42 43 44 45 46 47 48 49 50
000
ASUS44 KMAF 030110
RWRMAF
MIDLAND AREA WEATHER ROUNDUP
NATIONAL WEATHER SERVICE MIDLAND TX
800 PM CDT SUN AUG 02 2015

...IN SOUTHWEST TEXAS AND SOUTHEAST NEW MEXICO...

CITY           SKY/WX    TMP DP  RH WIND       PRES   REMARKS
ALPINE         CLOUDY    85  59  40 CALM      30.07R
ANDREWS        FAIR      80  63  55 E13       29.92F
ARTESIA        MOSUNNY   93  55  27 S13       29.92S
BIG SPRING     MOCLDY    83  58  43 E20       29.92S
CARLSBAD       MOSUNNY   95  56  26 S12       29.88F
DRYDEN           N/A     96  58  27 E10G18    29.86R
FORT STOCKTON  CLEAR     94  54  25 SE12      29.89F
GUAD PASS      CLOUDY    79  57  46 NE6       30.10F
HOBBS            N/A    N/A N/A N/A MISG        N/A
MARFA          PTCLDY    82  61  47 NE7       30.05S
MIDLAND AIRPK  MOCLDY    87  61  41 N16G28    29.91R
MIDLAND INTL   CLOUDY    95  56  26 VRB7      29.90R
ODESSA         MOCLDY    96  52  22 SE12      29.90S
PECOS          LGT RAIN  83  66  57 W8G21     29.85R
PRESIDIO       FAIR      97  53  22 MISG      29.84S
SEMINOLE       CLOUDY    83  58  41 SE12G20   29.94S
SNYDER         PTCLDY    90  62  39 S8        29.91R
WINK           MOCLDY    97  52  21 SE10      29.85S
$$
...OTHER STATIONS IN TEXAS...

CITY           SKY/WX    TMP DP  RH WIND       PRES   REMARKS
ABILENE        CLEAR     92  61  35 SE16      29.89S
AMARILLO       MOCLDY    84  66  54 SE9       29.95S THUNDER
AUSTIN         PTCLDY    92  59  33 E6        29.84S
BROWNSVILLE    CLEAR     84  74  71 E9        29.85S
CORPUS CHRISTI PTCLDY    87  72  60 SE13      29.84S
DALLAS FTW     PTCLDY    93  54  26 SE8       29.85S
DEL RIO        CLEAR     96  60  30 SE13      29.81S
EL PASO        MOSUNNY   91  55  29 W8        29.93S
HOUSTON INT    PTCLDY    90  66  45 SE10      29.84S
LUBBOCK        CLOUDY    87  62  43 S10       29.92F
SAN ANGELO     CLEAR     95  59  30 SE12      29.86F
SAN ANTONIO    PTCLDY    92  58  31 SE10      29.86S
WACO           CLEAR     93  55  27 E6        29.85S
WICHITA FALLS  NOT AVBL
$$
...OTHER LOCATIONS IN NEW MEXICO...

CITY           SKY/WX    TMP DP  RH WIND       PRES   REMARKS
ALAMAGORDO     CLOUDY    84  55  37 NE13      30.00R THUNDER
ALBUQUERQUE    CLOUDY    76  53  44 S13       30.11F
CANNON AFB     LGT RAIN  77  64  65 E7        29.99R
CLOVIS         MOCLDY    79  59  50 S16       30.00R
HOLLOMAN AFB   MOSUNNY   88  54  31 N20       29.96R
ROSWELL        PTSUNNY   93  52  24 S8        29.91F
RUIDOSO          N/A    N/A N/A N/A MISG        N/A
SANTA FE       PTSUNNY   77  52  41 SW9       30.15S
TRUTH OR CONSE PTSUNNY   83  54  36 NW14      30.06R
TUCUMCARI        N/A    N/A N/A N/A MISG      29.99R THUNDER
$$


USA.gov is the U.S. government's official web portal to all federal, state and local government web resources and services.